When you browse on this site, cookies collect data to enhance your experience and personalize the content and advertising you see.
Visit our Privacy Policy to learn more. By continuing to use the site, you agree to this use of cookies and data.
  • In Österreich
  • Länderverzeichnis
  • Für 7 Tage
  • Wassertemperatur
  • Wetterkarte
  • News
  • Widgets
  • user-avatar
    Anmelden

    Stündliche Wetter Manta

    Heute, 21 November, Donnerstag

    Zeit Temperatur Niederschläge Wind Luftdruck Luftfeuchtigkeit
    00:00 +13°C° 0.2 mm 0 m/S 584 mmHg 97%
    01:00 +13°C° 0.2 mm 0 m/S 584 mmHg 97%
    02:00 +13°C° 0.1 mm 0 m/S 584 mmHg 96%
    03:00 +13°C° 0.1 mm 1 m/S 584 mmHg 96%
    04:00 +13°C° 0.1 mm 1 m/S 584 mmHg 95%
    05:00 +14°C° 0 mm 1 m/S 584 mmHg 94%
    06:00 +14°C° 0 mm 1 m/S 584 mmHg 93%
    07:00 +14°C° 0 mm 1 m/S 585 mmHg 91%
    08:00 +18°C° 0.1 mm 1 m/S 586 mmHg 84%
    09:00 +20°C° 0.1 mm 1 m/S 587 mmHg 77%
    10:00 +22°C° 0.1 mm 1 m/S 588 mmHg 70%
    11:00 +21°C° 1.1 mm 1 m/S 587 mmHg 75%
    12:00 +21°C° 1.1 mm 1 m/S 586 mmHg 80%
    13:00 +21°C° 1.1 mm 1 m/S 585 mmHg 86%
    14:00 +20°C° 1.7 mm 1 m/S 585 mmHg 88%
    15:00 +19°C° 1.7 mm 1 m/S 584 mmHg 91%
    16:00 +19°C° 1.7 mm 1 m/S 583 mmHg 94%
    17:00 +16°C° 0.8 mm 0 m/S 583 mmHg 95%
    18:00 +15°C° 0.8 mm 0 m/S 583 mmHg 97%
    19:00 +14°C° 0.8 mm 0 m/S 583 mmHg 98%
    20:00 +14°C° 1.5 mm 0 m/S 584 mmHg 98%
    21:00 +14°C° 1.5 mm 0 m/S 584 mmHg 97%
    22:00 +14°C° 1.5 mm 1 m/S 585 mmHg 97%
    23:00 +14°C° 0.5 mm 1 m/S 584 mmHg 97%

    Morgen, 22 November, Freitag

    Zeit Temperatur Niederschläge Wind Luftdruck Luftfeuchtigkeit
    00:00 +14°C° 0.5 mm 1 m/S 584 mmHg 96%
    01:00 +12°C° 0.5 mm 0 m/S 583 mmHg 96%
    02:00 +13°C° 0.1 mm 1 m/S 583 mmHg 96%
    03:00 +12°C° 0.1 mm 1 m/S 582 mmHg 95%
    04:00 +12°C° 0.1 mm 1 m/S 582 mmHg 95%
    05:00 +13°C° 0 mm 1 m/S 583 mmHg 93%
    06:00 +13°C° 0 mm 1 m/S 583 mmHg 92%
    07:00 +14°C° 0 mm 1 m/S 584 mmHg 91%
    08:00 +18°C° 0.1 mm 1 m/S 585 mmHg 81%
    09:00 +20°C° 0.1 mm 1 m/S 587 mmHg 70%
    10:00 +23°C° 0.1 mm 1 m/S 588 mmHg 60%
    11:00 +23°C° 0.9 mm 1 m/S 587 mmHg 67%
    12:00 +22°C° 0.9 mm 1 m/S 586 mmHg 73%
    13:00 +21°C° 0.9 mm 1 m/S 585 mmHg 80%
    14:00 +21°C° 1.3 mm 1 m/S 584 mmHg 83%
    15:00 +20°C° 1.3 mm 1 m/S 584 mmHg 86%
    16:00 +19°C° 1.3 mm 1 m/S 583 mmHg 89%
    17:00 +18°C° 1 mm 1 m/S 583 mmHg 91%
    18:00 +16°C° 1 mm 1 m/S 583 mmHg 94%
    19:00 +15°C° 1 mm 1 m/S 583 mmHg 96%
    20:00 +15°C° 0.7 mm 1 m/S 583 mmHg 96%
    21:00 +15°C° 0.7 mm 1 m/S 584 mmHg 96%
    22:00 +15°C° 0.7 mm 1 m/S 584 mmHg 95%
    23:00 +15°C° 0.5 mm 1 m/S 584 mmHg 95%

    übermorgen, 23 November, Samstag

    Zeit Temperatur Niederschläge Wind Luftdruck Luftfeuchtigkeit
    00:00 +14°C° 0.5 mm 1 m/S 583 mmHg 95%
    01:00 +14°C° 0.5 mm 1 m/S 583 mmHg 95%
    02:00 +14°C° 0.2 mm 1 m/S 583 mmHg 95%
    03:00 +13°C° 0.2 mm 1 m/S 583 mmHg 95%
    04:00 +13°C° 0.2 mm 1 m/S 582 mmHg 95%
    05:00 +14°C° 0 mm 1 m/S 583 mmHg 94%
    06:00 +14°C° 0 mm 1 m/S 584 mmHg 93%
    07:00 +14°C° 0 mm 1 m/S 584 mmHg 92%
    08:00 +18°C° 0 mm 1 m/S 586 mmHg 80%
    09:00 +21°C° 0 mm 1 m/S 587 mmHg 69%
    10:00 +24°C° 0 mm 1 m/S 588 mmHg 57%
    11:00 +23°C° 0.6 mm 1 m/S 587 mmHg 65%
    12:00 +22°C° 0.6 mm 1 m/S 586 mmHg 73%
    13:00 +20°C° 0.6 mm 2 m/S 585 mmHg 81%
    14:00 +20°C° 1.5 mm 1 m/S 584 mmHg 85%
    15:00 +20°C° 1.5 mm 1 m/S 584 mmHg 89%
    16:00 +19°C° 1.5 mm 1 m/S 583 mmHg 93%
    17:00 +18°C° 0.9 mm 1 m/S 583 mmHg 95%
    18:00 +15°C° 0.9 mm 0 m/S 583 mmHg 97%
    19:00 +14°C° 0.9 mm 0 m/S 583 mmHg 98%
    20:00 +14°C° 1.6 mm 0 m/S 584 mmHg 98%
    21:00 +15°C° 1.6 mm 1 m/S 584 mmHg 97%
    22:00 +15°C° 1.6 mm 1 m/S 584 mmHg 96%
    23:00 +14°C° 0.5 mm 1 m/S 584 mmHg 96%

    24 November, Sonntag

    Zeit Temperatur Niederschläge Wind Luftdruck Luftfeuchtigkeit
    00:00 +14°C° 0.5 mm 1 m/S 583 mmHg 96%
    01:00 +14°C° 0.5 mm 1 m/S 583 mmHg 95%
    02:00 +14°C° 0 mm 1 m/S 583 mmHg 95%
    03:00 +12°C° 0 mm 0 m/S 582 mmHg 95%
    04:00 +12°C° 0 mm 0 m/S 582 mmHg 94%
    05:00 +13°C° 0 mm 0 m/S 583 mmHg 93%
    06:00 +13°C° 0 mm 0 m/S 584 mmHg 92%
    07:00 +14°C° 0 mm 0 m/S 584 mmHg 91%
    08:00 +18°C° 0.1 mm 1 m/S 585 mmHg 83%
    09:00 +20°C° 0.1 mm 1 m/S 586 mmHg 76%
    10:00 +22°C° 0.1 mm 1 m/S 587 mmHg 68%
    11:00 +22°C° 0.4 mm 1 m/S 587 mmHg 69%
    12:00 +21°C° 0.4 mm 2 m/S 586 mmHg 70%
    13:00 +21°C° 0.4 mm 2 m/S 585 mmHg 71%
    14:00 +20°C° 0.5 mm 2 m/S 584 mmHg 76%
    15:00 +19°C° 0.5 mm 2 m/S 584 mmHg 81%
    16:00 +19°C° 0.5 mm 1 m/S 583 mmHg 86%
    17:00 +18°C° 0.2 mm 1 m/S 583 mmHg 90%
    18:00 +16°C° 0.2 mm 1 m/S 583 mmHg 94%
    19:00 +14°C° 0.2 mm 0 m/S 583 mmHg 98%
    20:00 +14°C° 0.1 mm 0 m/S 583 mmHg 98%
    21:00 +14°C° 0.1 mm 0 m/S 584 mmHg 98%
    22:00 +14°C° 0.1 mm 0 m/S 584 mmHg 97%
    23:00 +13°C° 0 mm 0 m/S 584 mmHg 97%

    25 November, Montag

    Zeit Temperatur Niederschläge Wind Luftdruck Luftfeuchtigkeit
    00:00 +13°C° 0 mm 0 m/S 583 mmHg 96%
    01:00 +14°C° 0 mm 1 m/S 583 mmHg 95%
    02:00 +13°C° 0 mm 1 m/S 582 mmHg 95%
    03:00 +13°C° 0 mm 1 m/S 582 mmHg 94%
    04:00 +12°C° 0 mm 1 m/S 581 mmHg 94%
    05:00 +13°C° 0 mm 1 m/S 582 mmHg 91%
    06:00 +14°C° 0 mm 1 m/S 583 mmHg 89%
    07:00 +13°C° 0 mm 0 m/S 584 mmHg 87%
    08:00 +18°C° 0 mm 1 m/S 585 mmHg 78%
    09:00 +20°C° 0 mm 1 m/S 586 mmHg 68%
    10:00 +21°C° 0 mm 2 m/S 587 mmHg 59%
    11:00 +23°C° 0.2 mm 2 m/S 586 mmHg 60%
    12:00 +23°C° 0.2 mm 2 m/S 585 mmHg 61%
    13:00 +23°C° 0.2 mm 2 m/S 585 mmHg 62%
    14:00 +21°C° 0.6 mm 2 m/S 584 mmHg 71%
    15:00 +20°C° 0.6 mm 2 m/S 583 mmHg 80%
    16:00 +19°C° 0.6 mm 2 m/S 582 mmHg 89%
    17:00 +18°C° 0.2 mm 1 m/S 582 mmHg 92%
    18:00 +16°C° 0.2 mm 1 m/S 582 mmHg 95%
    19:00 +14°C° 0.2 mm 0 m/S 582 mmHg 98%
    20:00 +14°C° 0.1 mm 0 m/S 582 mmHg 97%
    21:00 +13°C° 0.1 mm 0 m/S 582 mmHg 97%
    22:00 +13°C° 0.1 mm 0 m/S 583 mmHg 96%
    23:00 +13°C° 0 mm 0 m/S 582 mmHg 96%

    26 November, Dienstag

    Zeit Temperatur Niederschläge Wind Luftdruck Luftfeuchtigkeit
    00:00 +12°C° 0 mm 0 m/S 582 mmHg 96%
    01:00 +13°C° 0 mm 1 m/S 582 mmHg 96%
    02:00 +13°C° 0 mm 1 m/S 581 mmHg 96%
    03:00 +13°C° 0 mm 1 m/S 581 mmHg 96%
    04:00 +12°C° 0 mm 0 m/S 581 mmHg 95%
    05:00 +13°C° 0 mm 0 m/S 582 mmHg 94%
    06:00 +13°C° 0 mm 0 m/S 583 mmHg 93%
    07:00 +14°C° 0 mm 0 m/S 584 mmHg 92%
    08:00 +18°C° 0.3 mm 1 m/S 585 mmHg 86%
    09:00 +20°C° 0.3 mm 1 m/S 585 mmHg 80%
    10:00 +20°C° 0.3 mm 2 m/S 586 mmHg 74%
    11:00 +20°C° 0.8 mm 2 m/S 585 mmHg 75%
    12:00 +21°C° 0.8 mm 2 m/S 585 mmHg 76%
    13:00 +21°C° 0.8 mm 2 m/S 584 mmHg 77%
    14:00 +20°C° 0.8 mm 2 m/S 583 mmHg 81%
    15:00 +19°C° 0.8 mm 2 m/S 583 mmHg 84%
    16:00 +20°C° 0.8 mm 1 m/S 582 mmHg 88%
    17:00 +18°C° 0.2 mm 1 m/S 582 mmHg 91%
    18:00 +16°C° 0.2 mm 1 m/S 582 mmHg 95%
    19:00 +14°C° 0.2 mm 0 m/S 582 mmHg 99%
    20:00 +14°C° 0.1 mm 1 m/S 582 mmHg 98%
    21:00 +14°C° 0.1 mm 1 m/S 582 mmHg 98%
    22:00 +14°C° 0.1 mm 1 m/S 583 mmHg 97%
    23:00 +13°C° 0 mm 1 m/S 582 mmHg 97%
    Mehr zeigen